Time,TemperatureF,DewpointF,PressureIn,WindDirection,WindDirectionDegrees,WindSpeedMPH,WindSpeedGustMPH,Humidity,HourlyPrecipIn,Conditions,Clouds,dailyrainin,SoftwareType,DateUTC
2013-02-14 00:02:00,37.0,26.0,29.94,SW,233,0.0,1.0,65,0.00,,,0.00,,2013-02-14 06:02:00,
2013-02-14 00:11:00,37.0,26.0,29.95,SW,236,0.0,1.0,65,0.00,,,0.00,,2013-02-14 06:11:00,
2013-02-14 00:21:00,37.0,26.0,29.95,SW,236,0.0,1.0,65,0.00,,,0.00,,2013-02-14 06:21:00,
2013-02-14 00:31:00,37.0,27.0,29.95,WSW,239,1.0,1.0,66,0.00,,,0.00,,2013-02-14 06:31:00,
2013-02-14 00:41:00,37.0,27.0,29.95,WSW,239,1.0,1.0,66,0.00,,,0.00,,2013-02-14 06:41:00,
2013-02-14 00:52:00,37.0,27.0,29.95,SW,233,0.0,1.0,66,0.00,,,0.00,,2013-02-14 06:52:00,
2013-02-14 01:01:00,37.0,26.0,29.95,SW,231,0.0,1.0,65,0.00,,,0.00,,2013-02-14 07:01:00,
2013-02-14 01:11:00,37.0,26.0,29.96,WSW,244,0.0,1.0,65,0.00,,,0.00,,2013-02-14 07:11:00,
2013-02-14 01:21:00,37.0,26.0,29.96,WSW,244,0.0,1.0,65,0.00,,,0.00,,2013-02-14 07:21:00,
2013-02-14 01:31:00,38.0,27.0,29.97,SSW,208,0.0,1.0,65,0.00,,,0.00,,2013-02-14 07:31:00,
2013-02-14 01:41:00,38.0,27.0,29.97,SSW,208,0.0,1.0,65,0.00,,,0.00,,2013-02-14 07:41:00,
2013-02-14 01:52:00,38.0,27.0,29.97,WNW,288,0.0,1.0,65,0.00,,,0.00,,2013-02-14 07:52:00,
2013-02-14 02:01:00,37.0,26.0,29.97,SW,229,0.0,1.0,65,0.00,,,0.00,,2013-02-14 08:01:00,
2013-02-14 02:11:00,37.0,26.0,29.97,SW,229,0.0,1.0,65,0.00,,,0.00,,2013-02-14 08:11:00,
2013-02-14 02:21:00,37.0,27.0,29.98,WSW,256,0.0,1.0,67,0.00,,,0.00,,2013-02-14 08:21:00,
2013-02-14 02:31:00,38.0,28.0,29.98,WSW,250,0.0,1.0,67,0.00,,,0.00,,2013-02-14 08:31:00,
2013-02-14 02:43:00,38.0,28.0,29.98,WSW,250,0.0,1.0,67,0.00,,,0.00,,2013-02-14 08:43:00,
2013-02-14 02:52:00,38.0,28.0,29.99,SW,217,0.0,1.0,67,0.00,,,0.00,,2013-02-14 08:52:00,
2013-02-14 03:01:00,38.0,28.0,29.99,West,269,3.0,6.0,67,0.00,,,0.00,,2013-02-14 09:01:00,
2013-02-14 03:11:00,39.0,29.0,30.00,West,268,0.0,4.0,66,0.00,,,0.00,,2013-02-14 09:11:00,
2013-02-14 03:21:00,39.0,29.0,30.00,West,268,0.0,4.0,66,0.00,,,0.00,,2013-02-14 09:21:00,
2013-02-14 03:31:00,39.0,29.0,30.01,WNW,284,0.0,1.0,67,0.00,,,0.00,,2013-02-14 09:31:00,
2013-02-14 03:41:00,39.0,29.0,30.01,WNW,284,0.0,1.0,67,0.00,,,0.00,,2013-02-14 09:41:00,
2013-02-14 03:52:00,38.0,28.0,30.01,SW,226,0.0,2.0,68,0.00,,,0.00,,2013-02-14 09:52:00,
2013-02-14 04:02:00,38.0,29.0,30.01,SW,232,0.0,1.0,70,0.00,,,0.00,,2013-02-14 10:02:00,
2013-02-14 04:11:00,38.0,29.0,30.02,NW,306,0.0,1.0,70,0.00,,,0.00,,2013-02-14 10:11:00,
2013-02-14 04:21:00,38.0,29.0,30.02,NW,306,0.0,1.0,70,0.00,,,0.00,,2013-02-14 10:21:00,
2013-02-14 04:31:00,40.0,31.0,30.02,WNW,282,2.0,7.0,69,0.00,,,0.00,,2013-02-14 10:31:00,
2013-02-14 04:42:00,40.0,31.0,30.02,WNW,282,2.0,7.0,69,0.00,,,0.00,,2013-02-14 10:42:00,
2013-02-14 04:52:00,40.0,31.0,30.03,NW,306,7.0,9.0,69,0.00,,,0.00,,2013-02-14 10:52:00,
2013-02-14 05:01:00,40.0,31.0,30.03,NW,321,4.0,11.0,70,0.00,,,0.00,,2013-02-14 11:01:00,
2013-02-14 05:11:00,39.0,30.0,30.03,NW,320,7.0,8.0,70,0.00,,,0.00,,2013-02-14 11:11:00,
2013-02-14 05:21:00,39.0,30.0,30.03,NW,320,7.0,8.0,70,0.00,,,0.00,,2013-02-14 11:21:00,
2013-02-14 05:32:00,39.0,30.0,30.03,NW,320,7.0,7.0,70,0.00,,,0.00,,2013-02-14 11:32:00,
2013-02-14 05:42:00,39.0,30.0,30.03,NW,320,7.0,7.0,70,0.00,,,0.00,,2013-02-14 11:42:00,
2013-02-14 05:52:00,39.0,30.0,30.04,NW,320,7.0,7.0,70,0.00,,,0.00,,2013-02-14 11:52:00,
2013-02-14 06:02:00,39.0,30.0,30.05,NW,320,7.0,7.0,70,0.00,,,0.00,,2013-02-14 12:02:00,
2013-02-14 06:11:00,39.0,30.0,30.05,NW,320,7.0,7.0,70,0.00,,,0.00,,2013-02-14 12:11:00,
2013-02-14 06:22:00,39.0,30.0,30.04,NW,320,7.0,7.0,70,0.00,,,0.00,,2013-02-14 12:22:00,
2013-02-14 06:32:00,39.0,30.0,30.04,NW,320,7.0,7.0,70,0.00,,,0.00,,2013-02-14 12:32:00,
2013-02-14 06:42:00,39.0,30.0,30.05,NW,320,7.0,7.0,70,0.00,,,0.00,,2013-02-14 12:42:00,
2013-02-14 06:53:00,39.0,30.0,30.05,NW,320,7.0,7.0,70,0.00,,,0.00,,2013-02-14 12:53:00,
2013-02-14 07:01:00,39.0,30.0,30.06,NW,320,7.0,7.0,70,0.00,,,0.00,,2013-02-14 13:01:00,
2013-02-14 07:11:00,39.0,30.0,30.06,NW,320,7.0,7.0,70,0.00,,,0.00,,2013-02-14 13:11:00,
2013-02-14 07:21:00,39.0,30.0,30.06,NW,320,7.0,7.0,70,0.00,,,0.00,,2013-02-14 13:21:00,
2013-02-14 07:31:00,39.0,30.0,30.06,NW,320,7.0,7.0,70,0.00,,,0.00,,2013-02-14 13:31:00,
2013-02-14 07:41:00,39.0,30.0,30.06,NW,320,7.0,7.0,70,0.00,,,0.00,,2013-02-14 13:41:00,
2013-02-14 07:52:00,39.0,30.0,30.07,NW,320,7.0,7.0,70,0.00,,,0.00,,2013-02-14 13:52:00,
2013-02-14 08:01:00,39.0,30.0,30.07,NW,320,7.0,7.0,70,0.00,,,0.00,,2013-02-14 14:01:00,
2013-02-14 08:11:00,35.0,30.0,30.07,NW,311,2.0,7.0,82,0.00,,,0.00,,2013-02-14 14:11:00,
2013-02-14 08:21:00,35.0,30.0,30.07,NW,311,2.0,7.0,82,0.00,,,0.00,,2013-02-14 14:21:00,
2013-02-14 08:31:00,35.0,30.0,30.07,NW,320,0.0,4.0,82,0.00,,,0.00,,2013-02-14 14:31:00,
2013-02-14 08:41:00,35.0,30.0,30.07,NW,320,0.0,4.0,82,0.00,,,0.00,,2013-02-14 14:41:00,
2013-02-14 08:52:00,36.0,31.0,30.08,West,277,0.0,1.0,82,0.00,,,0.00,,2013-02-14 14:52:00,
2013-02-14 09:01:00,37.0,32.0,30.10,SW,225,1.0,1.0,81,0.00,,,0.00,,2013-02-14 15:01:00,
2013-02-14 09:11:00,37.0,32.0,30.10,West,277,0.0,4.0,81,0.00,,,0.00,,2013-02-14 15:11:00,
2013-02-14 09:21:00,37.0,32.0,30.10,West,277,0.0,4.0,81,0.00,,,0.00,,2013-02-14 15:21:00,
2013-02-14 09:31:00,37.0,32.0,30.11,West,267,1.0,3.0,81,0.00,,,0.00,,2013-02-14 15:31:00,
2013-02-14 09:41:00,37.0,32.0,30.11,West,267,1.0,3.0,81,0.00,,,0.00,,2013-02-14 15:41:00,
2013-02-14 09:52:00,38.0,32.0,30.11,West,278,0.0,6.0,79,0.00,,,0.00,,2013-02-14 15:52:00,
2013-02-14 10:01:00,38.0,32.0,30.12,NW,311,4.0,7.0,79,0.00,,,0.00,,2013-02-14 16:01:00,
2013-02-14 10:11:00,39.0,32.0,30.12,NW,304,6.0,6.0,77,0.00,,,0.00,,2013-02-14 16:11:00,
2013-02-14 10:21:00,39.0,32.0,30.12,NW,304,6.0,6.0,77,0.00,,,0.00,,2013-02-14 16:21:00,
2013-02-14 10:32:00,40.0,33.0,30.13,NW,306,0.0,6.0,76,0.00,,,0.00,,2013-02-14 16:32:00,
2013-02-14 10:41:00,40.0,33.0,30.13,NW,306,0.0,6.0,76,0.00,,,0.00,,2013-02-14 16:41:00,
2013-02-14 10:52:00,41.0,33.0,30.13,NW,304,2.0,7.0,72,0.00,,,0.00,,2013-02-14 16:52:00,
2013-02-14 11:01:00,42.0,33.0,30.14,West,277,4.0,7.0,71,0.00,,,0.00,,2013-02-14 17:01:00,
2013-02-14 11:11:00,42.0,33.0,30.14,NNW,330,4.0,10.0,69,0.00,,,0.00,,2013-02-14 17:11:00,
2013-02-14 11:21:00,42.0,33.0,30.14,NNW,330,4.0,10.0,69,0.00,,,0.00,,2013-02-14 17:21:00,
2013-02-14 11:31:00,43.0,34.0,30.14,NW,318,5.0,9.0,69,0.00,,,0.00,,2013-02-14 17:31:00,
2013-02-14 11:41:00,43.0,34.0,30.14,NW,318,5.0,9.0,69,0.00,,,0.00,,2013-02-14 17:41:00,
2013-02-14 11:52:00,43.0,33.0,30.14,WNW,298,3.0,10.0,68,0.00,,,0.00,,2013-02-14 17:52:00,
2013-02-14 12:01:00,44.0,33.0,30.14,WNW,298,6.0,10.0,66,0.00,,,0.00,,2013-02-14 18:01:00,
2013-02-14 12:11:00,44.0,33.0,30.14,WNW,298,6.0,10.0,66,0.00,,,0.00,,2013-02-14 18:11:00,
2013-02-14 12:23:00,45.0,34.0,30.14,NW,316,4.0,10.0,64,0.00,,,0.00,,2013-02-14 18:23:00,
2013-02-14 12:32:00,45.0,33.0,30.14,NNE,32,7.0,11.0,62,0.00,,,0.00,,2013-02-14 18:32:00,
2013-02-14 12:41:00,45.0,33.0,30.14,NNE,32,7.0,11.0,62,0.00,,,0.00,,2013-02-14 18:41:00,
2013-02-14 12:52:00,45.0,32.0,30.15,NW,322,3.0,11.0,61,0.00,,,0.00,,2013-02-14 18:52:00,
2013-02-14 13:02:00,46.0,32.0,30.15,NW,308,10.0,10.0,59,0.00,,,0.00,,2013-02-14 19:02:00,
2013-02-14 13:11:00,47.0,33.0,30.15,NW,312,5.0,11.0,58,0.00,,,0.00,,2013-02-14 19:11:00,
2013-02-14 13:21:00,47.0,33.0,30.15,NW,312,5.0,11.0,58,0.00,,,0.00,,2013-02-14 19:21:00,
2013-02-14 13:31:00,47.0,31.0,30.15,NW,313,4.0,13.0,54,0.00,,,0.00,,2013-02-14 19:31:00,
2013-02-14 13:41:00,47.0,31.0,30.15,NW,313,4.0,13.0,54,0.00,,,0.00,,2013-02-14 19:41:00,
2013-02-14 13:52:00,46.0,29.0,30.14,NW,311,1.0,12.0,51,0.00,,,0.00,,2013-02-14 19:52:00,
2013-02-14 14:01:00,46.0,28.0,30.14,NW,313,5.0,11.0,50,0.00,,,0.00,,2013-02-14 20:01:00,
2013-02-14 14:11:00,46.0,28.0,30.14,NW,308,5.0,11.0,50,0.00,,,0.00,,2013-02-14 20:11:00,
2013-02-14 14:21:00,46.0,28.0,30.14,NW,308,5.0,11.0,50,0.00,,,0.00,,2013-02-14 20:21:00,
2013-02-14 14:31:00,46.0,27.0,30.14,NNW,329,4.0,13.0,48,0.00,,,0.00,,2013-02-14 20:31:00,
2013-02-14 14:41:00,46.0,27.0,30.14,NNW,329,4.0,13.0,48,0.00,,,0.00,,2013-02-14 20:41:00,
2013-02-14 14:52:00,46.0,27.0,30.15,North,349,6.0,12.0,47,0.00,,,0.00,,2013-02-14 20:52:00,
2013-02-14 15:02:00,46.0,27.0,30.15,NW,313,6.0,13.0,48,0.00,,,0.00,,2013-02-14 21:02:00,
2013-02-14 15:11:00,46.0,27.0,30.15,NW,313,6.0,13.0,48,0.00,,,0.00,,2013-02-14 21:11:00,
2013-02-14 15:21:00,47.0,28.0,30.15,NNW,329,11.0,13.0,48,0.00,,,0.00,,2013-02-14 21:21:00,
2013-02-14 15:31:00,47.0,28.0,30.15,NW,316,14.0,14.0,47,0.00,,,0.00,,2013-02-14 21:31:00,
2013-02-14 15:41:00,47.0,28.0,30.15,NW,316,14.0,14.0,47,0.00,,,0.00,,2013-02-14 21:41:00,
2013-02-14 15:52:00,47.0,28.0,30.16,WNW,303,9.0,15.0,48,0.00,,,0.00,,2013-02-14 21:52:00,
2013-02-14 16:02:00,47.0,28.0,30.16,NW,316,11.0,15.0,48,0.00,,,0.00,,2013-02-14 22:02:00,
2013-02-14 16:11:00,47.0,27.0,30.16,NW,316,5.0,15.0,46,0.00,,,0.00,,2013-02-14 22:11:00,
2013-02-14 16:21:00,47.0,27.0,30.16,NW,316,5.0,15.0,46,0.00,,,0.00,,2013-02-14 22:21:00,
2013-02-14 16:31:00,47.0,27.0,30.16,NW,316,5.0,15.0,46,0.00,,,0.00,,2013-02-14 22:31:00,
2013-02-14 16:42:00,47.0,27.0,30.16,NW,316,5.0,15.0,46,0.00,,,0.00,,2013-02-14 22:42:00,
2013-02-14 16:52:00,48.0,27.0,30.17,NW,317,11.0,14.0,43,0.00,,,0.00,,2013-02-14 22:52:00,
2013-02-14 17:01:00,49.0,25.0,30.17,North,355,8.0,17.0,38,0.00,,,0.00,,2013-02-14 23:01:00,
2013-02-14 17:11:00,49.0,25.0,30.17,North,355,8.0,17.0,38,0.00,,,0.00,,2013-02-14 23:11:00,
2013-02-14 17:21:00,49.0,25.0,30.18,NNW,337,7.0,15.0,39,0.00,,,0.00,,2013-02-14 23:21:00,
2013-02-14 17:31:00,49.0,26.0,30.18,NW,307,8.0,15.0,41,0.00,,,0.00,,2013-02-14 23:31:00,
2013-02-14 17:41:00,49.0,26.0,30.18,NW,307,8.0,15.0,41,0.00,,,0.00,,2013-02-14 23:41:00,
2013-02-14 17:52:00,48.0,26.0,30.17,NW,322,7.0,15.0,42,0.00,,,0.00,,2013-02-14 23:52:00,
2013-02-14 18:01:00,47.0,27.0,30.18,NW,317,8.0,16.0,45,0.00,,,0.00,,2013-02-15 00:01:00,
2013-02-14 18:11:00,47.0,27.0,30.18,NW,317,8.0,16.0,45,0.00,,,0.00,,2013-02-15 00:11:00,
2013-02-14 18:21:00,46.0,28.0,30.18,NW,309,7.0,13.0,49,0.00,,,0.00,,2013-02-15 00:21:00,
2013-02-14 18:31:00,45.0,28.0,30.19,NW,304,3.0,10.0,51,0.00,,,0.00,,2013-02-15 00:31:00,
2013-02-14 18:42:00,45.0,28.0,30.19,NW,304,3.0,10.0,51,0.00,,,0.00,,2013-02-15 00:42:00,
2013-02-14 18:52:00,44.0,28.0,30.20,WNW,282,4.0,10.0,53,0.00,,,0.00,,2013-02-15 00:52:00,
2013-02-14 19:02:00,43.0,28.0,30.21,WNW,283,2.0,8.0,55,0.00,,,0.00,,2013-02-15 01:02:00,
2013-02-14 19:11:00,43.0,28.0,30.21,WNW,283,2.0,8.0,55,0.00,,,0.00,,2013-02-15 01:11:00,
2013-02-14 19:21:00,43.0,28.0,30.21,NW,308,3.0,6.0,56,0.00,,,0.00,,2013-02-15 01:21:00,
2013-02-14 19:31:00,43.0,27.0,30.22,NNW,335,4.0,10.0,52,0.00,,,0.00,,2013-02-15 01:31:00,
2013-02-14 19:41:00,43.0,27.0,30.22,NNW,335,4.0,10.0,52,0.00,,,0.00,,2013-02-15 01:41:00,
2013-02-14 19:52:00,42.0,26.0,30.22,NW,323,6.0,9.0,52,0.00,,,0.00,,2013-02-15 01:52:00,
2013-02-14 20:01:00,41.0,22.0,30.24,NW,308,4.0,18.0,46,0.00,,,0.00,,2013-02-15 02:01:00,
2013-02-14 20:11:00,41.0,22.0,30.25,NNW,334,4.0,17.0,46,0.00,,,0.00,,2013-02-15 02:11:00,
2013-02-14 20:21:00,41.0,22.0,30.25,NNW,334,4.0,17.0,46,0.00,,,0.00,,2013-02-15 02:21:00,
2013-02-14 20:31:00,40.0,22.0,30.26,NE,45,6.0,18.0,48,0.00,,,0.00,,2013-02-15 02:31:00,
2013-02-14 20:41:00,40.0,22.0,30.26,NE,45,6.0,18.0,48,0.00,,,0.00,,2013-02-15 02:41:00,
2013-02-14 20:52:00,39.0,22.0,30.27,NW,314,8.0,16.0,51,0.00,,,0.00,,2013-02-15 02:52:00,
2013-02-14 21:02:00,38.0,22.0,30.27,NW,321,6.0,17.0,51,0.00,,,0.00,,2013-02-15 03:02:00,
2013-02-14 21:11:00,38.0,22.0,30.28,SW,236,13.0,17.0,51,0.00,,,0.00,,2013-02-15 03:11:00,
2013-02-14 21:22:00,38.0,22.0,30.28,SW,236,13.0,17.0,51,0.00,,,0.00,,2013-02-15 03:22:00,
2013-02-14 21:32:00,37.0,21.0,30.30,NW,324,14.0,18.0,51,0.00,,,0.00,,2013-02-15 03:32:00,
2013-02-14 21:42:00,37.0,21.0,30.30,NW,324,14.0,18.0,51,0.00,,,0.00,,2013-02-15 03:42:00,
2013-02-14 21:52:00,36.0,20.0,30.30,NW,309,9.0,18.0,52,0.00,,,0.00,,2013-02-15 03:52:00,
2013-02-14 22:01:00,35.0,20.0,30.32,NW,307,8.0,18.0,54,0.00,,,0.00,,2013-02-15 04:01:00,
2013-02-14 22:11:00,35.0,20.0,30.32,NW,307,8.0,18.0,54,0.00,,,0.00,,2013-02-15 04:11:00,
2013-02-14 22:21:00,34.0,20.0,30.32,NNW,329,8.0,17.0,57,0.00,,,0.00,,2013-02-15 04:21:00,
2013-02-14 22:31:00,33.0,20.0,30.33,WNW,302,5.0,18.0,59,0.00,,,0.00,,2013-02-15 04:31:00,
2013-02-14 22:42:00,33.0,20.0,30.33,WNW,302,5.0,18.0,59,0.00,,,0.00,,2013-02-15 04:42:00,
2013-02-14 22:52:00,32.0,20.0,30.33,NNW,342,7.0,15.0,61,0.00,,,0.00,,2013-02-15 04:52:00,
2013-02-14 23:02:00,31.0,20.0,30.33,NNW,327,5.0,13.0,63,0.00,,,0.00,,2013-02-15 05:02:00,
2013-02-14 23:11:00,31.0,20.0,30.33,NNW,327,5.0,13.0,63,0.00,,,0.00,,2013-02-15 05:11:00,
2013-02-14 23:22:00,31.0,21.0,30.34,NW,308,6.0,15.0,65,0.00,,,0.00,,2013-02-15 05:22:00,
2013-02-14 23:32:00,30.0,20.0,30.34,NNW,340,6.0,11.0,67,0.00,,,0.00,,2013-02-15 05:32:00,
2013-02-14 23:41:00,30.0,20.0,30.34,NNW,340,6.0,11.0,67,0.00,,,0.00,,2013-02-15 05:41:00,
2013-02-14 23:52:00,29.0,20.0,30.35,WNW,295,2.0,9.0,69,0.00,,,0.00,,2013-02-15 05:52:00,